TimeCEST,TemperatureF,Dew PointF,Humidity,Sea Level PressureIn,VisibilityMPH,Wind Direction,Wind SpeedMPH,Gust SpeedMPH,PrecipitationIn,Events,Conditions,WindDirDegrees,DateUTC
12:25 AM,50.0,41.0,71,30.01,6.2,SW,5.8,-,N/A,,Unknown,220,2013-05-10 22:25:00
12:55 AM,48.2,41.0,76,30.01,6.2,SSW,5.8,-,N/A,,Partly Cloudy,210,2013-05-10 22:55:00
1:25 AM,48.2,41.0,76,29.98,6.2,SSW,6.9,-,N/A,,Unknown,200,2013-05-10 23:25:00
1:55 AM,48.2,41.0,76,29.98,6.2,SSW,8.1,-,N/A,,Mostly Cloudy,200,2013-05-10 23:55:00
2:25 AM,48.2,41.0,76,29.98,6.2,SSW,8.1,-,N/A,,Mostly Cloudy,210,2013-05-11 00:25:00
2:55 AM,48.2,41.0,76,29.98,6.2,SSW,9.2,-,N/A,,Partly Cloudy,200,2013-05-11 00:55:00
3:25 AM,48.2,41.0,76,29.98,6.2,SSW,8.1,-,N/A,,Overcast,200,2013-05-11 01:25:00
3:55 AM,48.2,41.0,76,29.95,6.2,SSW,9.2,-,N/A,,Overcast,200,2013-05-11 01:55:00
4:25 AM,48.2,41.0,76,29.95,6.2,SSW,9.2,-,N/A,,Mostly Cloudy,210,2013-05-11 02:25:00
4:55 AM,48.2,41.0,76,29.95,6.2,SSW,8.1,-,N/A,,Overcast,210,2013-05-11 02:55:00
5:25 AM,50.0,42.8,76,29.95,6.2,SSW,5.8,-,N/A,,Overcast,210,2013-05-11 03:25:00
5:55 AM,50.0,42.8,76,29.92,6.2,SSW,5.8,-,N/A,,Overcast,200,2013-05-11 03:55:00
6:25 AM,50.0,42.8,76,29.92,6.2,SSW,8.1,-,N/A,,Overcast,200,2013-05-11 04:25:00
6:55 AM,50.0,42.8,76,29.92,6.2,SSW,9.2,-,N/A,,Overcast,200,2013-05-11 04:55:00
7:25 AM,51.8,42.8,71,29.92,6.2,SSW,9.2,-,N/A,,Mostly Cloudy,200,2013-05-11 05:25:00
7:55 AM,51.8,44.6,76,29.92,6.2,South,9.2,-,N/A,,Mostly Cloudy,190,2013-05-11 05:55:00
8:25 AM,51.8,44.6,76,29.92,6.2,South,8.1,-,N/A,,Overcast,190,2013-05-11 06:25:00
8:55 AM,51.8,44.6,76,29.92,6.2,SSW,9.2,-,N/A,,Overcast,200,2013-05-11 06:55:00
9:01 AM,51.8,44.6,76,29.92,6.2,SSW,10.4,-,N/A,,Overcast,200,2013-05-11 07:01:00
9:25 AM,51.8,44.6,76,29.92,6.2,SSW,9.2,-,N/A,,Overcast,200,2013-05-11 07:25:00
9:33 AM,51.8,44.6,76,29.92,6.2,SSW,9.2,-,N/A,,Overcast,200,2013-05-11 07:33:00
9:55 AM,53.6,44.6,72,29.92,6.2,SW,6.9,-,N/A,,Overcast,220,2013-05-11 07:55:00
10:13 AM,51.8,44.6,76,29.92,4.3,SW,6.9,-,N/A,Rain,Light Rain,230,2013-05-11 08:13:00
10:25 AM,50.0,44.6,82,29.92,3.7,WSW,10.4,-,N/A,Rain,Rain,250,2013-05-11 08:25:00
10:30 AM,50.0,44.6,82,29.92,6.2,West,9.2,-,N/A,,Overcast,260,2013-05-11 08:30:00
10:43 AM,50.0,44.6,82,29.92,6.2,West,9.2,-,N/A,,Overcast,260,2013-05-11 08:43:00
10:55 AM,50.0,42.8,76,29.92,6.2,West,10.4,-,N/A,Rain,Light Rain,270,2013-05-11 08:55:00
11:03 AM,50.0,42.8,76,29.92,6.2,West,11.5,-,N/A,Rain,Light Rain Showers,270,2013-05-11 09:03:00
11:12 AM,48.2,42.8,82,29.92,6.2,West,10.4,-,N/A,Rain,Light Rain,260,2013-05-11 09:12:00
11:25 AM,48.2,42.8,82,29.95,6.2,WSW,10.4,-,N/A,Rain,Light Rain Showers,250,2013-05-11 09:25:00
11:33 AM,48.2,42.8,82,29.95,6.2,WSW,10.4,-,N/A,Rain,Light Rain,250,2013-05-11 09:33:00
11:38 AM,48.2,42.8,82,29.95,6.2,WSW,9.2,-,N/A,Rain,Light Rain,250,2013-05-11 09:38:00
11:55 AM,46.4,44.6,93,29.95,6.2,SW,9.2,-,N/A,Rain,Light Rain Showers,220,2013-05-11 09:55:00
12:25 PM,48.2,44.6,87,29.92,6.2,South,6.9,-,N/A,,Mostly Cloudy,180,2013-05-11 10:25:00
12:55 PM,50.0,46.4,87,29.92,6.2,SSW,12.7,-,N/A,,Mostly Cloudy,200,2013-05-11 10:55:00
1:01 PM,51.8,46.4,82,29.92,6.2,SW,11.5,-,N/A,,Mostly Cloudy,220,2013-05-11 11:01:00
1:25 PM,51.8,46.4,82,29.89,6.2,SW,10.4,-,N/A,,Mostly Cloudy,220,2013-05-11 11:25:00
1:48 PM,53.6,46.4,77,29.89,6.2,SW,10.4,-,N/A,,Scattered Clouds,230,2013-05-11 11:48:00
1:55 PM,53.6,44.6,72,29.89,6.2,SW,10.4,-,N/A,,Partly Cloudy,230,2013-05-11 11:55:00
2:25 PM,55.4,41.0,58,29.89,6.2,SW,11.5,-,N/A,,Mostly Cloudy,230,2013-05-11 12:25:00
2:55 PM,59.0,44.6,59,29.89,6.2,SW,12.7,-,N/A,,Mostly Cloudy,230,2013-05-11 12:55:00
3:25 PM,55.4,39.2,54,29.86,6.2,SW,12.7,-,N/A,,Overcast,220,2013-05-11 13:25:00
3:55 PM,55.4,41.0,58,29.89,6.2,WSW,16.1,27.6,N/A,,Mostly Cloudy,240,2013-05-11 13:55:00
4:25 PM,55.4,42.8,63,29.86,6.2,SW,15.0,-,N/A,,Mostly Cloudy,230,2013-05-11 14:25:00
4:47 PM,51.8,44.6,76,29.86,3.7,SW,12.7,25.3,N/A,Rain,Light Rain,220,2013-05-11 14:47:00
4:55 PM,51.8,46.4,82,29.89,6.2,SW,11.5,-,N/A,Rain,Rain Showers,230,2013-05-11 14:55:00
4:59 PM,51.8,46.4,82,29.89,6.2,SW,11.5,-,N/A,Rain,Light Rain,230,2013-05-11 14:59:00
5:08 PM,53.6,48.2,82,29.86,6.2,SW,10.4,-,N/A,Rain,Light Rain,220,2013-05-11 15:08:00
5:13 PM,53.6,48.2,82,29.86,6.2,SW,11.5,-,N/A,,Mostly Cloudy,220,2013-05-11 15:13:00
5:25 PM,53.6,46.4,77,29.86,6.2,SW,11.5,-,N/A,,Mostly Cloudy,230,2013-05-11 15:25:00
5:36 PM,53.6,46.4,77,29.86,6.2,SW,13.8,-,N/A,,Mostly Cloudy,220,2013-05-11 15:36:00
5:40 PM,53.6,46.4,77,29.86,6.2,SSW,13.8,-,N/A,,Mostly Cloudy,210,2013-05-11 15:40:00
5:47 PM,53.6,46.4,77,29.86,6.2,SW,13.8,-,N/A,,Mostly Cloudy,220,2013-05-11 15:47:00
5:55 PM,53.6,48.2,82,29.86,6.2,SW,12.7,-,N/A,,Overcast,230,2013-05-11 15:55:00
5:56 PM,55.4,48.2,77,29.86,6.2,SW,11.5,-,N/A,,Mostly Cloudy,220,2013-05-11 15:56:00
6:25 PM,55.4,46.4,72,29.86,6.2,SW,13.8,-,N/A,,Mostly Cloudy,220,2013-05-11 16:25:00
6:40 PM,55.4,46.4,72,29.86,6.2,SW,11.5,-,N/A,,Mostly Cloudy,230,2013-05-11 16:40:00
6:55 PM,55.4,46.4,72,29.83,6.2,SW,12.7,-,N/A,,Mostly Cloudy,220,2013-05-11 16:55:00
7:25 PM,55.4,46.4,72,29.86,6.2,SW,13.8,-,N/A,,Overcast,220,2013-05-11 17:25:00
7:55 PM,53.6,46.4,77,29.86,6.2,SW,10.4,-,N/A,,Mostly Cloudy,220,2013-05-11 17:55:00
8:25 PM,53.6,46.4,77,29.86,6.2,SW,10.4,-,N/A,,Mostly Cloudy,220,2013-05-11 18:25:00
8:55 PM,53.6,46.4,77,29.83,6.2,SW,9.2,-,N/A,,Mostly Cloudy,220,2013-05-11 18:55:00
9:25 PM,53.6,44.6,72,29.83,6.2,SW,10.4,24.2,N/A,,Overcast,230,2013-05-11 19:25:00
9:55 PM,53.6,44.6,72,29.83,6.2,SW,12.7,-,N/A,,Mostly Cloudy,230,2013-05-11 19:55:00
10:25 PM,53.6,42.8,67,29.86,6.2,SW,15.0,26.5,N/A,,Mostly Cloudy,230,2013-05-11 20:25:00
10:55 PM,53.6,42.8,67,29.86,6.2,SW,11.5,23.0,N/A,,Overcast,230,2013-05-11 20:55:00
11:25 PM,51.8,44.6,76,29.86,6.2,WSW,12.7,-,N/A,Rain,Light Rain,240,2013-05-11 21:25:00
11:43 PM,51.8,42.8,71,29.86,6.2,WSW,15.0,-,N/A,Rain,Light Rain,240,2013-05-11 21:43:00
11:48 PM,51.8,42.8,71,29.86,6.2,WSW,11.5,-,N/A,,Light Drizzle,250,2013-05-11 21:48:00
11:55 PM,51.8,42.8,71,29.86,6.2,WSW,12.7,-,N/A,,Mostly Cloudy,240,2013-05-11 21:55:00
11:59 PM,51.8,42.8,71,29.86,6.2,WSW,11.5,-,N/A,,Mostly Cloudy,240,2013-05-11 21:59:00